EDT,Max TemperatureF,Mean TemperatureF,Min TemperatureF,Max Dew PointF,MeanDew PointF,Min DewpointF,Max Humidity, Mean Humidity, Min Humidity, Max Sea Level PressureIn, Mean Sea Level PressureIn, Min Sea Level PressureIn, Max VisibilityMiles, Mean VisibilityMiles, Min VisibilityMiles, Max Wind SpeedMPH, Mean Wind SpeedMPH, Max Gust SpeedMPH,PrecipitationIn, CloudCover, Events, WindDirDegrees
2011-10-1,73,67,60,60,52,39,81,62,43,29.88,29.76,29.66,10,10,10,16,10,26,0.00,3,,312
2011-10-2,66,60,54,45,43,39,66,54,42,30.04,29.94,29.87,10,10,10,14,8,22,0.00,2,,296
2011-10-3,70,62,53,45,42,38,59,46,32,30.14,30.07,30.02,10,10,10,16,7,23,0.00,0,,282
2011-10-4,71,61,51,51,48,45,83,64,44,30.17,30.14,30.09,10,10,10,13,6,18,0.00,0,,328
2011-10-5,74,66,58,58,55,51,93,75,57,30.21,30.18,30.14,10,10,10,10,4,17,0.00,0,,10
2011-10-6,76,67,58,61,55,48,93,71,49,30.34,30.27,30.20,10,10,10,16,7,26,0.00,0,,41
2011-10-7,74,68,61,56,54,52,78,66,53,30.44,30.38,30.31,10,10,10,15,8,22,0.00,0,,48
2011-10-8,75,68,61,59,57,54,84,71,57,30.45,30.41,30.39,10,10,10,17,9,26,0.00,0,,52
2011-10-9,76,72,68,62,60,58,81,71,60,30.39,30.33,30.28,10,10,10,16,9,25,0.00,2,,54
2011-10-10,77,73,68,67,65,62,87,78,69,30.27,30.16,30.06,10,10,10,10,8,18,0.00,1,,58
2011-10-11,77,71,65,67,63,59,93,79,64,30.06,29.99,29.92,10,7,1,28,12,36,1.29,7,Rain,88
2011-10-12,80,75,69,71,69,64,97,86,74,29.92,29.86,29.80,10,9,5,18,7,24,0.02,5,,105
2011-10-13,79,76,72,70,69,66,93,86,79,29.80,29.73,29.67,10,9,5,17,8,24,0.01,2,Rain,201
2011-10-14,75,72,68,68,62,53,90,72,53,29.85,29.68,29.60,10,10,8,22,11,31,0.02,1,,247
2011-10-15,76,68,59,61,56,49,73,59,44,30.01,29.92,29.86,10,10,10,16,8,23,0.00,0,,252
2011-10-16,73,65,57,54,48,41,86,60,34,30.13,30.05,30.01,10,10,10,18,8,24,0.00,0,,258
2011-10-17,79,76,72,67,63,56,79,67,54,29.99,29.93,29.88,10,10,10,23,15,30,0.00,0,,237
2011-10-18,82,76,70,72,67,63,90,73,55,29.94,29.84,29.71,10,8,1,28,9,36,0.70,3,Rain,198
2011-10-19,77,73,69,75,72,68,100,91,82,29.67,29.49,29.38,8,2,1,39,18,55,4.49,7,Rain,200
2011-10-20,69,63,56,64,50,44,72,64,56,29.95,29.76,29.48,10,10,8,32,18,47,0.00,3,,253
2011-10-21,66,59,51,48,46,42,89,69,48,30.08,30.04,29.97,10,10,10,15,5,22,0.00,0,,284
2011-10-22,69,61,52,55,53,49,89,73,57,30.08,30.06,30.04,10,10,10,13,7,21,0.03,5,,25
2011-10-23,70,66,61,61,55,51,87,72,57,30.11,30.08,30.06,10,10,9,13,7,21,0.03,7,,44
2011-10-24,70,66,61,63,60,53,93,83,72,30.07,30.02,29.96,10,9,4,15,8,23,0.01,6,Rain,30
2011-10-25,69,61,52,55,50,45,89,66,42,30.22,30.15,30.06,10,10,10,13,5,22,0.00,0,,344
2011-10-26,73,62,51,60,54,47,89,71,53,30.17,30.06,29.95,10,10,10,21,12,30,0.00,0,,251
2011-10-27,76,73,69,63,60,57,73,67,60,29.94,29.86,29.79,10,10,9,21,15,30,0.00,0,,245
2011-10-28,71,65,58,60,52,46,87,74,60,30.09,30.02,29.88,10,10,10,18,12,32,T,7,,38
2011-10-29,69,58,47,65,56,37,97,82,66,30.02,29.84,29.77,10,8,1,22,12,39,0.06,7,Rain,322
2011-10-30,57,51,45,41,37,34,76,61,46,30.35,30.22,30.03,10,10,10,16,8,30,0.00,0,,16
2011-10-31,66,58,50,56,48,38,86,71,56,30.34,30.22,30.01,10,10,10,24,10,32,0.26,2,,74